Theta_e
290 289 288 289 288 288 287 287 288 288 289 288 288 288 288 288 288 287 287 288 288 289 288 288 287 288 288 288 287 287 288 288 288 288 288 288 289 292 298 301 303 306 307 310 313 314 316 317 318 319 319 319 319 320 320 320 321 321 322 322 323 323 323 323 323 324 324 325 325 325 326 327 327 328 329 331 332 333 335 337 339 340 341 342 343
290 288 289 288 287 287 288 287 287 287 288 288 288 287 287 287 287 287 287 287 288 290 287 287 287 287 288 287 287 287 287 287 287 287 288 288 289 290 295 299 301 304 306 308 311 312 314 315 316 317 318 318 318 319 319 320 320 320 320 321 322 323 323 323 323 323 323 323 323 323 323 324 324 325 326 327 328 330 331 333 335 338 340 341 341
289 289 288 288 287 287 287 287 286 287 287 288 288 287 287 287 287 287 287 287 287 288 287 287 286 287 287 287 287 287 287 287 287 287 288 288 288 288 291 296 299 302 304 306 309 310 311 312 313 314 316 317 317 318 318 319 319 319 319 320 322 322 322 321 320 320 321 322 323 323 323 324 324 325 326 326 327 328 329 330 331 333 337 339 340
289 288 288 288 287 286 286 286 286 286 287 287 288 287 287 287 287 287 286 287 287 287 287 285 285 286 286 286 286 287 286 286 287 287 287 288 288 288 288 291 295 299 301 303 307 309 310 310 310 313 315 315 316 317 318 319 318 317 319 320 321 319 318 318 318 319 319 320 321 321 322 322 323 323 323 324 325 325 327 328 329 330 331 335 338
289 289 290 287 287 286 285 287 286 287 286 287 287 287 287 287 288 287 286 286 286 287 287 285 285 285 286 286 286 286 286 286 287 287 287 287 287 287 287 290 290 295 297 300 303 306 308 308 310 311 311 312 313 315 316 316 316 317 319 319 318 318 318 317 317 319 319 320 320 320 319 320 320 321 321 322 323 323 324 325 327 329 330 330 332
289 288 288 287 287 286 285 285 285 286 287 287 286 286 286 286 286 288 290 286 285 285 284 285 285 285 285 286 285 286 286 286 286 287 287 287 287 287 287 288 288 289 291 297 300 302 306 307 307 308 308 309 310 312 313 314 316 317 316 315 316 316 316 316 317 318 318 318 317 317 317 318 318 319 320 320 321 323 324 325 327 328 329 329 330
289 289 287 287 286 286 285 285 286 286 285 286 286 286 286 286 285 285 285 284 284 286 284 284 284 285 285 286 285 286 286 286 286 286 286 286 287 287 287 287 288 289 292 290 294 298 303 305 306 306 306 307 308 310 312 314 314 313 313 314 315 314 314 314 315 316 316 316 315 316 316 316 317 318 319 319 320 321 323 325 326 326 327 328 329
289 288 287 287 286 286 285 285 285 286 286 285 286 285 285 286 285 285 284 284 284 283 284 284 284 285 285 285 285 287 285 285 286 285 286 286 287 287 287 287 288 290 294 290 291 293 300 302 303 303 303 305 307 308 309 310 311 311 311 313 312 312 313 313 314 315 315 314 314 313 313 313 315 316 317 318 319 320 321 323 324 324 325 326 327
289 288 287 287 286 286 284 285 285 285 285 284 284 286 285 286 285 286 283 283 283 283 283 284 284 284 285 284 284 286 284 285 285 286 288 286 285 285 286 287 289 291 288 290 290 291 295 299 299 299 299 304 305 306 307 308 308 309 310 310 310 311 312 312 313 313 313 312 311 311 312 313 314 315 316 317 317 318 320 320 321 323 323 324 325
288 288 287 287 286 285 285 285 285 284 284 284 284 285 285 285 284 283 283 283 283 283 283 283 284 285 284 284 284 284 284 284 285 289 285 285 285 285 287 286 285 286 288 288 288 289 289 292 295 295 296 301 303 304 304 305 305 307 308 309 310 311 312 311 311 310 310 310 310 311 312 313 314 315 315 315 316 317 318 319 320 321 322 322 323
288 288 287 287 286 285 285 284 285 284 284 284 283 284 285 283 284 283 283 284 283 283 283 284 284 283 284 284 283 283 284 285 286 284 284 284 287 289 286 285 285 285 286 286 286 286 286 287 287 287 289 298 300 301 302 302 302 304 307 309 310 311 310 309 309 308 308 309 310 311 312 313 313 313 314 314 314 315 316 317 318 319 320 321 321
287 287 287 287 285 285 285 284 284 284 283 283 283 284 283 283 282 283 284 284 284 283 282 282 282 281 283 283 282 282 282 286 284 284 285 284 284 285 284 285 284 284 285 285 285 285 287 287 288 287 289 292 296 297 298 298 298 301 304 306 307 307 308 307 308 308 309 310 310 311 311 311 312 313 313 314 314 315 315 316 317 317 318 319 320
287 287 286 287 285 284 284 284 283 284 283 284 284 283 283 283 284 284 282 282 282 282 282 281 280 279 280 281 281 282 285 285 283 283 284 284 284 283 284 284 284 284 285 285 285 286 287 287 287 287 288 287 288 293 294 294 294 298 301 303 304 306 307 308 308 309 309 309 310 310 311 311 312 312 313 313 314 315 315 315 316 317 317 317 318
287 286 286 286 285 284 284 284 283 283 283 283 282 285 284 283 283 281 281 281 281 281 283 279 279 278 279 279 279 282 284 282 282 282 283 284 284 283 284 284 284 284 285 285 285 285 286 286 286 286 286 286 287 286 286 287 289 295 298 300 301 304 306 307 308 308 308 308 309 310 310 311 311 312 313 314 314 314 315 315 315 316 316 317 317
287 287 286 286 285 285 284 284 283 284 283 282 283 283 282 283 282 282 281 281 282 283 282 280 279 279 279 278 276 278 282 279 280 282 282 283 283 282 284 284 283 283 284 284 285 285 286 285 285 285 285 285 285 285 285 288 289 292 293 295 297 302 304 306 307 308 308 308 308 310 310 310 311 312 312 313 313 314 315 315 316 316 316 316 317
287 287 286 286 285 285 284 283 283 284 283 283 283 283 282 282 281 282 283 281 279 281 282 280 279 278 277 278 276 278 277 277 278 281 281 282 281 282 283 283 283 283 284 283 284 284 284 284 284 284 284 284 284 284 285 285 288 290 290 291 293 298 301 304 306 306 307 308 308 308 309 309 310 310 311 312 312 313 313 314 314 315 315 315 316
287 286 286 285 285 284 284 283 283 283 283 283 283 283 282 282 282 282 280 281 279 278 281 281 281 280 278 277 276 277 276 276 277 277 278 280 280 281 283 282 281 283 282 282 283 283 283 283 283 283 283 283 283 283 284 284 284 288 286 288 292 295 298 302 303 305 305 306 307 307 308 308 308 309 310 311 311 312 313 313 313 314 314 315 315
287 286 286 286 284 284 283 283 283 283 283 283 282 281 281 282 282 282 280 280 281 279 279 282 281 282 279 277 278 276 275 276 277 275 278 280 279 280 281 281 280 281 281 281 282 281 283 283 283 283 282 282 283 283 283 283 285 284 285 287 293 294 295 297 300 303 304 305 304 305 306 305 306 307 308 309 309 310 310 311 312 313 313 314 314
286 286 286 286 284 284 284 283 283 283 283 282 281 282 282 282 282 281 281 282 281 279 280 279 279 280 280 280 282 281 279 277 275 276 274 277 277 279 278 279 280 280 280 280 281 281 281 282 282 282 281 282 282 282 282 283 286 287 288 290 292 293 294 295 296 298 301 301 302 302 303 304 305 306 306 307 307 308 309 309 310 311 312 313 314
286 286 286 285 285 284 283 283 283 283 283 282 282 281 282 282 282 281 281 282 281 281 280 279 279 279 280 280 280 279 278 278 278 277 276 274 276 278 278 279 279 279 280 280 280 280 280 280 281 281 281 281 282 282 282 282 282 282 284 290 291 292 293 294 294 294 295 297 299 300 302 304 305 305 305 305 306 307 308 308 309 309 311 312 313
286 285 285 285 285 284 283 283 283 282 283 282 281 281 282 281 281 281 281 281 280 280 281 280 279 280 279 278 278 277 277 277 278 278 277 275 275 275 275 278 279 280 279 279 279 280 280 280 281 282 282 282 281 281 282 282 282 282 288 289 290 291 292 292 292 293 293 293 295 298 301 302 302 303 304 304 305 306 307 308 308 308 309 310 312
285 285 284 284 284 284 283 283 283 282 283 282 281 281 281 281 281 281 281 280 280 280 280 280 279 280 280 279 278 277 276 276 276 276 276 276 275 275 275 275 275 277 278 279 279 279 280 280 280 280 280 280 281 281 281 281 282 285 286 288 288 289 290 291 292 292 292 292 294 295 297 298 300 301 302 303 304 305 306 307 307 308 309 309 310
285 284 284 284 284 283 283 282 282 283 283 281 281 282 281 281 281 281 281 281 280 280 282 280 279 280 279 279 279 279 277 276 276 276 276 275 274 275 276 276 275 275 277 278 280 280 280 279 279 279 280 280 280 280 280 281 286 286 286 286 287 288 289 290 290 290 291 291 292 293 294 295 296 298 300 302 303 305 305 306 307 307 307 308 309
284 284 283 283 283 283 283 282 282 282 282 282 281 281 281 281 280 280 280 280 280 281 280 279 279 279 279 279 278 278 278 277 277 277 277 276 276 275 275 275 276 276 278 278 279 278 278 278 279 279 280 280 280 281 282 281 283 285 284 284 285 286 287 288 288 288 289 290 290 292 293 293 294 295 297 299 302 303 304 305 305 306 306 307 308
283 283 283 283 283 282 282 282 282 282 282 281 281 281 281 280 280 280 280 279 280 280 280 280 280 279 279 279 278 278 278 278 278 277 277 277 276 274 275 275 274 275 276 277 276 278 279 278 279 279 279 279 281 281 280 281 280 283 284 282 283 284 284 285 287 287 288 289 290 291 292 292 292 293 295 296 298 300 302 302 303 304 305 305 306
284 284 284 283 283 283 283 282 282 282 282 281 281 281 281 281 280 280 280 280 279 280 280 279 279 279 279 278 278 278 277 278 277 277 276 276 274 274 274 274 274 274 276 275 276 276 276 277 277 278 278 279 279 279 279 279 279 282 283 280 279 281 283 284 286 287 288 289 289 290 289 290 291 291 292 295 297 297 299 300 302 303 303 304 306
285 284 284 283 283 283 282 282 281 281 281 281 281 281 281 280 280 280 279 279 279 279 278 278 278 277 277 277 277 277 277 277 277 277 277 277 276 275 274 272 273 274 273 275 275 275 276 277 278 278 278 279 278 278 278 278 280 282 281 277 277 279 281 283 285 287 288 288 288 288 288 288 289 290 291 292 294 295 297 298 300 301 302 302 302
285 284 284 283 283 282 282 281 281 281 281 281 280 280 280 280 279 279 278 279 278 278 278 278 278 277 277 277 277 277 277 277 277 277 277 277 276 276 275 274 272 270 273 273 273 274 276 276 277 278 278 278 278 277 279 278 278 281 279 276 276 276 279 282 285 286 287 287 287 287 288 288 289 289 290 290 291 292 293 294 295 295 295 296 296
284 284 283 283 283 282 282 281 281 281 280 280 280 280 280 279 279 278 278 278 278 278 277 277 277 277 277 277 277 277 276 277 277 277 277 276 276 276 276 275 275 272 271 271 273 273 275 276 275 277 278 278 277 278 276 276 278 279 276 276 275 275 278 282 284 285 286 286 286 287 287 287 288 288 288 289 290 290 291 292 293 293 294 295 296
284 284 283 282 282 282 281 281 280 280 280 280 280 279 279 279 278 278 278 278 277 277 277 277 277 277 277 277 277 276 277 276 276 277 276 276 276 276 275 275 276 273 273 271 272 274 274 276 277 276 277 276 276 276 276 275 278 278 276 275 275 275 280 281 282 283 284 285 285 286 287 287 287 288 288 288 289 290 291 292 292 293 294 295 296
283 282 282 282 281 281 281 280 280 280 280 279 279 279 279 278 278 277 277 277 277 276 276 277 276 277 276 276 276 276 276 276 275 276 276 276 275 275 275 275 275 274 273 273 270 274 275 275 276 276 275 274 275 274 275 275 276 277 276 275 276 278 280 278 280 282 283 284 285 285 286 286 287 287 288 288 289 290 291 291 291 292 293 294 295
282 282 282 282 281 281 280 280 279 279 279 279 279 278 278 278 277 277 276 277 276 276 275 276 276 276 275 275 275 275 275 275 275 275 275 275 275 275 274 274 274 274 274 273 272 272 276 275 275 275 274 273 274 273 273 274 276 277 275 275 275 278 276 275 278 280 281 283 284 285 285 286 286 287 288 288 289 290 290 290 291 291 291 292 294
282 282 282 281 281 281 280 280 279 279 279 278 278 278 278 277 276 276 276 276 276 275 275 275 275 275 275 274 274 274 275 274 274 274 274 274 274 274 274 273 272 273 272 271 270 270 272 275 274 274 273 274 272 273 273 273 274 274 276 275 275 274 274 275 275 278 280 282 283 284 285 286 287 288 288 288 288 289 289 289 289 290 291 292 292
282 282 281 281 281 281 280 279 279 279 279 278 278 278 277 276 276 276 276 276 275 274 274 274 274 274 274 273 273 273 273 273 273 273 273 273 272 272 272 272 271 271 272 270 270 269 268 272 271 273 272 274 271 274 273 273 273 274 274 274 275 275 275 275 275 275 279 281 283 284 285 287 287 288 288 288 288 288 289 289 289 289 290 291 291
281 282 281 281 281 280 280 279 279 279 278 278 278 277 277 276 276 276 276 276 275 274 274 274 274 274 273 273 272 272 272 271 271 272 272 271 272 271 271 271 270 271 271 271 269 268 268 269 271 271 272 272 272 272 273 273 274 274 273 274 274 275 276 275 275 276 279 282 283 284 285 286 287 287 287 287 287 288 288 288 289 289 289 289 290
280 281 281 281 280 280 279 279 279 278 278 278 277 277 277 277 276 276 276 276 275 275 274 274 273 273 273 272 271 271 271 270 270 270 270 271 270 270 270 270 270 270 270 271 270 269 269 268 270 271 272 272 272 273 274 274 274 274 274 274 275 275 275 276 275 275 278 282 283 283 284 285 285 286 286 286 286 287 287 287 288 288 288 288 288
281 280 280 280 280 280 279 279 278 278 278 277 277 277 277 277 277 276 276 275 275 274 274 274 275 273 272 272 271 271 270 269 269 269 269 269 269 269 269 270 270 270 270 270 270 270 269 268 269 271 272 272 273 273 274 273 274 274 275 274 275 275 275 275 276 277 280 282 282 282 283 283 284 285 285 285 286 286 287 287 287 288 287 288 288
280 280 280 280 280 279 279 279 278 278 278 277 277 277 277 276 276 276 275 275 275 274 273 273 273 273 272 271 270 270 270 269 269 268 268 268 268 268 268 269 270 270 270 270 270 270 270 269 270 270 272 272 272 273 274 274 273 273 274 275 275 276 276 276 276 278 278 278 277 278 279 280 281 282 284 285 285 286 286 286 287 287 286 286 286
280 280 280 280 280 280 279 279 278 278 277 277 277 276 276 276 275 275 274 274 274 273 273 273 272 272 271 271 270 270 270 269 269 268 268 268 268 268 268 268 269 269 269 270 270 270 270 270 270 271 271 272 272 271 273 275 274 274 273 273 274 276 276 276 275 277 277 277 279 281 281 280 282 281 282 284 285 285 285 285 285 286 285 285 285
280 280 279 279 279 279 279 279 278 278 277 277 276 276 276 275 275 274 274 273 273 272 272 272 271 271 271 270 270 270 269 269 269 269 269 268 268 268 269 269 269 270 270 270 270 269 269 270 270 270 271 271 272 273 274 275 274 274 275 275 273 273 274 275 275 275 276 276 276 276 279 279 279 280 281 282 282 283 283 283 283 282 282 283 285
280 280 279 279 278 278 278 278 277 277 277 276 276 276 275 275 275 274 273 273 272 272 271 271 271 271 271 271 270 269 270 272 273 272 272 271 269 268 269 270 270 270 270 270 269 269 269 270 270 272 271 272 272 273 274 274 274 273 275 275 274 274 274 274 275 276 276 275 276 276 276 276 276 276 276 276 277 279 279 281 281 281 282 284 285
279 279 278 278 278 278 277 277 277 277 277 277 278 280 279 275 274 274 273 272 272 271 271 271 270 271 271 270 270 273 274 274 274 275 275 275 274 272 271 272 271 271 270 268 268 270 270 270 270 271 271 272 273 274 274 274 275 275 274 274 272 273 274 273 274 276 277 276 275 274 276 277 277 276 276 276 277 278 277 278 278 279 281 284 285
278 278 278 278 277 278 277 277 276 276 276 277 280 282 282 280 275 273 272 272 271 272 271 271 270 270 270 270 270 273 274 275 274 276 276 277 277 277 276 276 275 273 271 271 271 272 272 272 273 273 273 272 273 274 274 274 274 274 274 274 274 273 272 271 270 274 277 276 275 274 275 277 276 275 276 276 277 277 277 277 281 283 283 285 285
277 277 277 277 277 277 277 277 276 276 276 279 282 283 283 282 278 273 273 272 271 271 271 271 270 270 270 270 270 272 273 273 274 275 276 278 278 279 279 279 279 279 279 276 274 273 273 273 273 273 273 273 273 274 274 274 274 274 274 274 273 273 272 271 272 271 276 278 275 273 273 276 277 276 275 276 277 277 277 280 283 284 285 285 286
277 277 277 277 277 277 277 276 276 276 276 280 282 283 283 282 280 276 273 272 272 271 271 271 270 270 271 271 271 272 273 276 275 274 273 274 277 278 278 278 278 279 279 279 280 277 276 274 274 274 274 274 273 273 274 275 276 273 273 273 273 273 273 273 273 274 275 276 273 271 270 273 274 274 274 276 276 277 277 280 283 283 284 285 285
277 277 277 277 277 276 276 276 276 276 276 280 283 283 283 283 281 277 272 272 272 271 271 271 271 271 271 271 271 272 273 274 274 273 273 271 271 272 273 273 273 275 277 278 278 279 278 276 274 273 274 275 274 275 276 276 274 273 273 272 274 273 273 272 272 272 273 274 271 270 269 271 273 273 273 275 276 276 277 279 283 284 284 285 285
277 277 276 276 276 276 276 276 276 275 275 280 283 284 284 283 282 277 272 272 271 271 271 272 272 272 273 273 273 273 273 273 273 273 272 271 270 269 270 271 273 274 274 275 275 275 275 275 275 275 275 276 276 276 276 276 276 276 276 275 273 272 271 271 270 271 271 273 272 271 267 270 274 273 273 274 276 276 276 279 282 283 284 284 285
277 277 277 277 276 276 276 276 275 275 275 281 283 284 284 284 282 273 271 271 271 271 271 272 273 273 274 273 273 273 272 272 274 276 275 272 272 271 271 272 273 274 275 277 278 278 277 277 277 277 277 277 279 278 278 278 277 277 275 273 271 269 268 267 266 269 269 272 273 271 269 270 273 272 272 274 275 275 276 276 281 283 283 284 284
276 276 276 276 276 276 275 274 274 274 274 279 283 284 284 284 281 271 271 271 271 271 272 273 273 274 273 273 273 272 272 271 274 277 277 276 273 272 272 272 272 270 272 275 278 279 279 279 279 279 279 279 280 280 280 280 277 275 271 268 266 268 267 265 265 266 267 270 271 272 270 269 272 273 272 275 275 276 275 276 277 281 283 284 284
275 276 276 275 275 275 275 274 274 273 273 278 283 284 284 284 278 271 271 272 272 272 272 273 273 272 273 275 274 272 271 272 275 277 278 277 275 274 273 271 271 272 273 275 275 274 277 277 277 277 277 278 278 277 276 276 276 274 269 266 267 268 265 265 264 265 267 269 270 273 270 270 272 272 270 271 273 274 275 276 277 278 281 282 283
275 275 275 274 273 273 274 274 276 274 273 277 283 284 284 284 278 273 272 272 272 272 272 272 272 272 272 275 275 273 273 273 276 278 279 278 275 274 273 273 272 272 273 273 272 271 271 270 272 273 273 272 271 269 269 273 273 272 270 268 267 265 264 265 265 266 265 267 271 273 268 268 269 269 269 267 267 270 273 273 274 276 277 278 278
Wind_Speed
6 5 4 5 4 5 5 5 5 5 5 5 5 6 5 4 4 4 3 4 4 4 3 3 4 4 4 3 3 3 4 4 4 4 4 5 5 6 11 12 12 12 13 12 12 11 11 11 11 11 11 11 11 11 12 12 12 13 13 13 13 13 13 13 13 13 13 13 14 14 14 15 15 16 16 17 17 18 20 21 19 18 18 16 15
7 5 6 6 5 4 4 5 5 4 5 6 4 5 6 4 4 4 4 4 5 3 3 4 4 3 3 3 3 3 3 4 4 4 4 5 5 5 10 11 11 12 12 12 12 11 11 11 11 11 11 11 11 11 11 12 12 13 13 12 12 12 12 14 14 14 14 13 14 14 15 16 16 16 16 16 16 17 17 19 21 20 18 18 16
6 6 5 6 5 5 5 4 4 4 3 5 3 4 4 5 5 4 4 5 4 3 4 4 3 4 3 3 4 3 4 3 4 4 5 5 5 4 5 9 11 11 12 12 13 12 12 12 12 12 12 12 12 12 12 12 12 13 13 12 12 13 14 14 14 14 15 15 15 15 15 16 17 17 17 16 16 16 16 17 18 19 19 19 18
7 6 6 6 6 6 5 5 6 4 3 4 4 3 4 3 4 3 3 4 4 4 3 4 3 3 3 3 3 4 4 4 4 4 4 5 5 5 5 6 9 10 10 11 12 13 13 13 13 13 13 13 13 12 12 11 13 13 12 12 13 13 14 15 15 14 14 14 15 16 17 18 18 18 18 19 18 18 17 16 16 16 18 19 20
7 7 6 6 6 6 5 5 5 5 3 4 4 3 4 4 4 3 4 4 4 4 3 4 4 5 4 4 4 4 4 4 4 4 5 5 5 5 6 5 5 7 9 10 11 12 13 13 13 13 14 14 14 14 14 13 14 13 13 13 14 15 16 16 15 15 14 15 15 16 16 17 17 18 18 19 18 18 18 17 17 16 16 16 18
8 6 6 6 6 5 6 5 5 4 4 4 5 4 5 5 4 5 3 4 4 3 3 5 4 3 4 4 3 3 4 5 5 4 4 5 5 5 5 5 6 5 5 8 10 11 12 12 13 14 15 15 15 16 15 15 14 14 14 15 15 16 16 17 16 15 15 16 16 16 17 17 17 18 18 19 19 18 18 17 16 16 16 15 16
7 8 7 6 6 6 5 6 5 4 5 4 5 4 5 5 5 6 4 4 3 2 2 2 3 5 4 4 5 4 3 4 4 4 5 4 5 4 5 5 6 5 5 5 6 9 11 13 14 15 15 15 15 16 16 15 15 15 15 15 15 16 17 17 16 16 16 17 17 17 18 18 18 18 18 19 19 19 19 18 18 17 17 17 16
8 7 7 6 6 6 6 5 5 5 5 4 4 6 4 5 3 5 6 3 3 2 2 3 3 4 3 4 4 3 4 4 4 4 4 4 4 4 4 4 4 5 5 5 5 5 11 13 13 14 15 15 15 15 14 14 14 15 15 15 16 17 17 17 16 16 17 17 17 18 19 19 19 18 18 19 19 19 19 20 19 18 17 16 16
8 7 7 7 6 6 5 5 4 5 6 5 5 5 5 5 2 1 3 5 4 3 3 3 3 3 4 3 3 3 4 4 4 4 3 4 4 3 5 6 5 6 5 6 5 6 8 12 12 13 14 15 15 14 14 15 15 15 15 16 16 17 17 16 16 16 17 18 19 19 19 19 19 18 18 19 19 19 20 20 19 19 18 17 16
8 8 7 6 6 6 5 5 5 5 5 5 6 4 4 4 5 2 3 4 4 4 3 3 2 3 3 4 4 4 3 4 3 3 4 4 4 4 5 4 5 6 6 6 5 6 5 7 10 11 12 16 17 18 18 18 18 18 17 17 16 16 16 16 17 18 19 19 20 19 18 18 18 19 19 19 19 19 19 20 20 20 20 19 18
8 8 8 7 7 6 6 5 5 6 6 5 5 4 4 3 5 4 3 4 5 3 1 1 1 2 3 4 3 3 3 2 2 4 5 4 3 4 4 5 5 5 5 5 5 5 5 5 7 7 8 16 18 19 19 20 21 20 19 18 17 17 17 17 18 18 19 19 19 19 19 19 19 20 20 20 20 20 20 19 20 20 21 20 20
9 8 8 8 7 7 7 5 6 6 7 7 6 6 7 6 5 6 6 4 3 2 1 1 0 3 3 4 3 3 4 1 2 4 5 5 4 3 5 5 5 5 5 5 6 5 7 8 7 7 7 10 15 16 18 20 20 20 20 20 19 19 19 19 19 19 18 18 19 19 20 20 20 20 21 21 21 21 21 20 20 21 21 21 21
8 9 9 8 7 6 6 5 5 6 6 7 5 6 4 5 6 3 4 3 3 3 1 3 4 3 3 5 5 3 2 1 3 4 6 5 5 6 5 6 6 6 6 6 7 7 6 7 6 7 7 6 7 11 16 17 18 20 20 20 20 20 19 19 19 19 19 19 20 20 20 20 20 20 21 21 21 21 21 21 21 21 21 22 22
9 9 8 9 9 8 7 8 7 6 5 4 4 4 5 5 5 5 2 3 2 2 2 2 5 2 2 6 6 4 3 4 3 1 4 4 5 5 4 6 6 5 6 6 6 5 5 5 6 6 6 5 5 6 7 8 10 19 20 20 21 20 20 20 20 20 20 20 20 20 20 21 21 21 21 21 22 21 22 22 23 23 23 23 22
10 10 9 9 9 8 8 7 7 6 6 6 6 6 5 6 5 7 4 2 3 1 4 2 4 3 2 2 3 4 3 5 3 1 3 1 4 3 3 5 5 4 3 5 5 5 4 5 6 5 4 3 5 5 6 6 8 15 18 19 20 20 20 20 20 21 21 21 21 21 21 21 21 21 21 22 22 22 22 22 22 23 23 23 24
11 10 8 9 9 9 7 7 7 6 6 7 7 6 6 5 4 4 7 4 1 1 3 3 3 5 2 2 0 1 1 2 5 6 4 3 3 2 3 4 4 5 5 5 4 4 5 5 5 5 3 3 4 5 5 5 8 10 13 14 18 19 19 20 20 21 21 21 22 22 22 22 22 22 23 23 23 23 23 24 23 23 23 24 24
10 11 10 10 9 8 8 7 7 7 6 7 8 8 7 6 6 6 5 7 4 2 1 2 1 1 6 4 2 1 2 1 3 6 2 1 1 1 4 3 3 3 4 4 4 4 5 5 5 5 4 3 4 3 4 4 4 4 7 10 15 17 19 20 20 21 21 21 21 21 22 22 23 23 23 23 24 24 24 24 24 24 23 23 23
11 12 11 10 10 9 8 8 8 7 7 7 5 5 5 6 7 6 4 2 6 5 2 1 2 3 2 1 2 2 5 3 2 2 4 1 2 1 1 1 1 2 2 4 5 5 3 5 5 6 4 3 3 4 3 3 3 3 5 7 14 15 17 19 20 20 21 21 21 22 22 23 23 24 24 25 25 25 26 26 26 26 24 23 23
12 12 12 11 10 10 10 10 9 8 6 7 7 8 7 6 4 5 5 5 6 5 7 4 2 2 2 3 5 4 5 6 4 2 4 5 3 1 2 0 1 1 3 3 4 4 4 4 5 5 4 3 3 3 3 3 3 4 6 9 12 14 14 15 16 18 20 21 22 22 22 23 23 24 25 26 26 27 27 27 27 27 27 26 24
11 10 11 11 11 10 10 10 10 9 8 8 9 7 6 4 5 5 5 6 6 9 7 7 7 3 1 3 4 4 3 3 4 6 3 2 6 2 3 4 3 4 3 2 4 5 5 4 5 6 5 4 3 3 3 2 3 3 3 9 12 12 13 15 16 17 18 19 21 21 22 23 23 24 25 26 27 27 27 27 27 28 28 27 27
9 10 10 10 10 11 10 10 10 9 8 7 7 8 9 9 8 7 7 6 5 5 8 9 6 8 7 2 4 3 3 2 4 3 4 4 5 4 2 3 5 7 5 1 3 5 3 4 6 6 5 4 3 3 2 2 2 3 4 11 11 13 15 16 16 16 17 18 19 20 21 22 23 24 24 25 25 26 27 28 28 27 27 27 27
9 9 10 10 10 10 10 11 10 10 9 9 8 8 8 8 8 8 8 7 5 7 8 7 6 6 7 8 6 4 3 2 2 3 1 3 5 3 1 2 7 2 2 5 3 4 4 5 6 5 5 4 3 2 2 2 2 3 6 12 13 15 16 16 16 16 17 17 19 19 20 21 22 23 23 24 25 25 25 25 25 26 27 27 28
9 9 10 10 10 10 10 10 9 10 10 10 10 10 9 9 7 7 7 9 7 7 5 6 6 7 7 8 9 10 9 7 7 5 4 3 2 4 2 3 4 11 1 1 7 8 5 4 5 6 4 4 3 2 2 2 3 8 12 13 14 14 15 17 17 18 18 19 19 19 20 21 22 23 24 25 25 25 24 23 23 25 26 26 27
9 9 10 10 10 9 9 9 10 9 10 9 9 9 9 8 8 8 8 7 7 8 8 9 8 7 7 6 6 5 5 6 6 6 6 4 3 6 6 2 5 7 3 6 5 5 3 3 4 4 4 3 2 1 1 4 6 12 7 10 13 15 15 17 18 18 18 19 19 19 20 21 22 23 24 24 24 24 24 24 24 25 26 26 26
12 12 12 13 11 10 11 11 10 10 9 9 9 10 10 9 9 9 9 10 10 10 9 10 10 10 9 6 6 5 5 5 6 6 5 5 4 2 2 3 4 9 3 2 2 3 6 6 4 5 4 3 1 3 3 3 3 7 9 5 13 13 15 16 17 17 18 19 19 19 20 20 22 23 23 24 25 25 25 25 25 26 27 27 28
13 14 12 12 11 11 11 10 9 9 9 10 10 10 10 10 10 10 11 9 8 9 8 8 7 5 5 7 5 6 5 6 6 7 6 6 4 4 2 3 2 9 8 5 3 7 2 3 1 2 1 0 2 3 3 4 3 8 11 7 8 13 15 16 17 17 18 19 20 20 21 22 22 22 23 25 25 25 25 26 26 27 27 28 28
13 11 10 13 12 11 11 11 9 9 9 9 9 9 9 8 8 9 8 7 8 8 7 8 8 7 6 6 6 6 6 6 7 6 6 6 6 5 5 1 4 3 4 3 7 3 9 5 1 1 1 3 3 2 2 2 4 10 11 6 6 13 16 18 18 19 19 20 22 22 23 23 24 24 24 24 25 25 25 25 26 26 27 28 28
9 10 11 12 12 12 11 11 10 10 9 9 9 9 9 9 8 8 9 6 8 9 7 7 7 7 7 6 7 6 6 7 6 7 6 6 6 6 6 6 5 3 4 5 3 4 4 5 3 1 2 4 1 2 3 4 3 12 9 6 6 7 14 17 18 19 20 21 22 22 23 24 25 26 26 26 26 26 26 26 27 27 27 27 27
10 10 11 11 11 12 11 11 11 10 10 10 10 9 9 9 9 9 9 7 8 8 7 7 7 7 7 8 7 7 7 6 6 6 6 6 6 6 6 7 7 4 1 3 2 3 3 4 2 2 4 1 2 3 4 5 9 12 6 5 6 6 12 18 19 20 21 23 23 24 25 25 26 28 28 28 28 28 28 28 28 28 28 29 29
10 9 11 12 12 12 11 11 10 10 11 10 10 9 9 8 8 8 7 7 7 6 7 7 8 7 6 6 6 6 6 6 6 6 6 6 6 6 6 6 6 7 6 4 5 4 5 3 4 3 2 2 4 5 6 8 12 13 8 7 7 7 16 18 18 20 21 22 24 25 26 26 27 27 27 27 28 28 28 28 28 28 29 29 30
11 11 12 12 12 12 11 11 10 11 10 10 9 9 9 8 8 8 7 8 8 8 7 7 7 7 7 7 6 6 6 6 6 6 5 6 6 6 5 6 6 6 6 4 4 5 6 5 2 1 0 1 3 4 5 5 7 11 9 10 9 15 19 13 18 20 22 23 24 24 25 25 26 27 28 28 29 29 29 29 29 29 30 30 30
10 12 12 13 14 13 12 12 11 11 11 10 10 10 9 8 8 8 8 9 9 9 8 6 6 7 8 8 7 7 6 6 6 6 6 5 5 5 5 5 5 5 4 6 8 10 3 3 2 5 2 3 6 8 7 5 6 10 7 8 11 16 10 9 14 19 21 24 25 26 26 26 27 28 28 29 29 29 30 30 30 30 30 30 30
12 13 13 14 14 14 13 13 13 13 12 12 10 10 10 9 8 8 8 9 10 8 8 8 6 7 8 8 7 7 7 7 6 6 6 5 5 5 4 5 5 4 5 5 7 9 6 5 6 3 2 5 6 3 8 6 7 7 8 7 8 7 8 8 9 14 19 22 24 24 25 26 27 28 29 29 30 30 31 30 30 30 30 30 29
13 14 14 13 13 14 14 13 13 13 13 13 12 11 12 11 10 8 9 10 10 9 9 9 8 7 7 8 7 7 6 7 7 6 6 6 5 5 4 5 4 4 3 4 6 7 8 3 7 4 3 5 4 4 6 8 8 8 10 9 7 6 7 8 8 8 16 20 22 23 24 26 26 28 28 29 31 31 30 32 31 30 30 30 30
12 13 14 14 14 14 13 13 13 13 13 13 12 12 12 13 13 11 11 11 12 12 12 11 10 8 9 8 8 7 6 7 6 6 6 6 5 5 4 4 4 3 3 3 3 5 8 7 5 7 4 3 4 6 6 7 7 7 10 9 9 8 7 8 9 7 13 19 22 22 24 26 27 28 29 30 31 30 31 30 31 31 30 31 31
13 12 13 14 14 14 15 14 15 14 14 13 13 13 14 14 13 13 12 12 11 11 12 11 11 11 11 10 9 9 7 8 7 6 6 6 5 5 5 4 4 4 3 4 6 7 5 9 3 5 6 6 5 5 6 7 7 7 7 9 8 9 9 8 8 8 10 18 20 22 24 25 26 28 29 29 29 29 29 30 29 30 30 31 31
14 13 12 13 14 15 16 17 16 15 15 14 14 14 13 12 13 12 13 12 12 11 11 11 11 12 11 11 10 9 9 9 7 7 6 7 5 5 5 4 4 4 4 5 6 6 7 9 9 5 6 6 5 5 4 8 9 8 9 8 8 9 9 6 6 6 12 18 21 23 23 25 26 27 28 27 27 27 28 29 29 29 29 30 31
14 14 15 14 15 17 16 16 16 16 15 15 16 15 15 13 12 12 11 12 11 11 10 10 11 10 10 10 10 10 10 10 8 7 7 8 6 6 6 5 4 4 5 6 6 7 8 9 8 10 4 8 8 4 5 6 10 13 11 8 7 7 6 7 6 6 7 7 8 10 14 18 21 25 25 25 27 28 27 28 27 27 27 28 30
14 14 14 16 14 16 16 15 16 16 16 15 14 13 13 13 13 13 12 11 11 10 10 10 9 9 8 8 9 10 10 8 9 9 8 8 7 6 6 5 5 5 5 5 6 6 7 8 8 7 9 6 7 12 6 6 9 8 14 15 9 5 8 8 10 8 7 10 13 20 19 18 21 19 23 26 27 27 27 27 27 29 28 30 30
15 16 16 16 14 13 14 15 15 14 15 14 14 14 13 14 13 13 13 12 12 10 9 9 8 8 9 8 8 9 8 7 8 8 8 8 6 6 5 5 5 6 6 5 5 5 5 6 7 10 8 10 9 7 8 7 7 6 5 9 14 12 10 9 9 12 11 11 13 9 10 14 15 18 23 23 24 26 27 27 28 30 32 32 31
12 13 12 13 13 13 12 13 14 13 15 15 14 15 15 14 13 14 14 13 12 12 10 9 8 7 7 7 7 7 7 9 12 10 9 8 6 6 6 7 7 6 6 5 5 5 5 5 6 7 8 8 8 9 10 10 11 12 9 9 13 13 13 13 9 7 10 11 11 12 9 6 10 12 10 11 12 17 20 25 23 30 31 32 31
12 11 12 13 14 15 15 14 13 13 14 12 15 24 20 16 15 12 11 12 12 11 11 9 7 8 8 6 7 12 14 14 13 13 13 14 13 9 7 7 7 6 6 5 5 5 5 6 5 7 8 8 10 11 11 11 10 11 13 12 13 14 15 16 11 3 9 11 12 14 11 8 12 13 10 12 12 12 12 13 13 18 25 31 31
13 13 13 15 15 14 16 16 17 14 13 11 21 25 25 23 16 13 14 12 11 11 8 8 9 9 8 7 6 10 12 12 10 14 13 15 15 16 15 14 10 8 6 7 6 5 5 6 6 9 10 12 12 11 11 10 10 12 11 11 15 15 12 15 21 11 5 11 19 17 13 2 5 14 12 11 10 13 14 13 20 27 30 32 32
13 12 14 15 14 14 14 14 16 15 14 16 25 25 25 25 19 13 11 11 11 11 8 8 8 8 9 8 7 6 7 8 8 9 12 14 15 14 15 14 15 15 14 9 6 5 5 6 6 7 10 12 13 12 11 10 12 12 13 13 12 12 17 16 12 17 11 10 18 23 25 9 4 12 16 12 8 11 15 21 30 32 32 33 33
11 13 16 15 15 14 15 16 16 14 13 19 25 26 25 25 24 16 10 11 12 11 9 10 10 10 9 9 8 7 6 15 10 7 4 5 10 13 13 14 14 15 15 16 15 9 6 7 8 8 7 9 12 11 10 11 13 16 14 11 12 16 12 16 15 11 15 13 16 21 24 19 6 12 16 17 11 11 14 20 29 30 32 33 33
14 14 14 16 15 16 16 16 15 13 13 18 24 25 25 25 25 18 10 12 11 11 10 10 9 10 11 10 10 9 8 9 8 8 7 5 4 5 6 5 4 9 13 14 14 15 12 8 7 10 10 9 12 12 11 12 14 14 13 14 10 10 11 13 17 17 16 11 13 18 23 20 6 10 17 15 11 14 11 18 30 31 31 33 32
16 16 16 16 15 14 12 11 11 12 11 21 25 26 25 26 25 17 10 10 9 10 8 9 11 11 11 10 10 10 11 8 7 9 7 6 5 5 6 7 7 8 8 7 7 7 7 8 10 12 11 10 10 11 11 11 13 12 12 12 11 13 14 16 17 14 14 9 10 12 19 20 11 13 18 15 13 15 11 16 29 32 31 33 33
9 9 9 10 13 13 13 13 13 12 10 22 24 25 26 25 25 12 11 11 11 10 10 11 10 10 10 9 9 8 8 7 12 16 12 8 7 9 9 9 8 7 6 7 11 13 11 9 8 9 10 12 16 15 14 13 11 9 11 13 12 12 12 12 14 12 13 8 9 13 17 18 13 16 19 15 13 16 14 12 21 32 33 34 35
10 11 11 11 10 11 12 11 12 10 9 18 24 24 26 27 20 11 12 10 10 11 11 11 10 10 7 9 8 7 7 7 12 17 17 16 9 11 10 8 5 3 5 7 11 13 15 17 19 20 21 22 22 22 21 21 16 15 12 12 13 9 11 13 15 12 11 9 8 12 16 18 15 16 17 16 14 18 15 14 13 21 28 30 32
11 11 10 9 9 10 12 12 12 11 11 17 24 25 25 29 18 14 12 12 11 11 10 10 8 8 10 17 12 8 8 8 15 17 17 14 8 8 6 4 5 7 6 4 3 5 12 16 19 21 22 21 18 17 18 20 24 18 8 12 11 8 12 10 14 15 16 12 11 11 14 12 14 14 17 17 21 15 13 12 16 16 25 25 30
9 8 9 10 9 9 11 13 14 14 12 15 25 26 28 29 19 12 12 11 12 11 11 10 8 8 9 13 17 12 11 11 17 17 18 13 6 6 5 6 7 5 4 4 5 4 5 7 9 8 6 8 8 9 11 19 19 16 11 11 9 8 11 11 12 14 16 12 3 5 13 12 13 15 11 13 17 15 13 15 14 13 11 11 13
Wind_Direction
168 169 156 163 156 150 146 143 137 144 139 141 140 141 134 136 122 112 103 89 76 62 60 53 47 45 46 31 25 18 11 7 7 0 1 358 353 344 352 356 359 360 0 359 2 7 11 15 16 17 17 17 15 13 13 12 13 13 11 10 10 14 14 15 13 10 6 4 3 0 357 353 352 351 350 350 351 351 348 337 324 318 313 303 293
168 167 166 169 164 153 145 153 150 154 146 148 163 139 136 122 109 99 92 82 70 55 65 55 41 36 35 29 21 11 6 4 360 0 353 353 349 342 346 351 355 358 358 355 359 8 11 15 16 14 16 16 14 13 12 10 12 12 11 11 12 14 16 19 17 14 10 8 6 4 0 357 354 352 350 348 349 349 347 345 342 331 320 313 304
166 170 172 167 164 159 161 156 155 168 159 147 150 139 129 118 119 113 102 90 77 56 64 61 40 30 15 23 4 6 5 2 357 355 356 351 348 343 339 346 351 355 355 353 357 4 7 10 11 9 13 11 10 9 8 7 8 8 9 11 12 17 18 14 11 10 10 9 7 5 3 1 1 358 356 353 351 349 345 342 341 342 335 323 313
166 174 175 169 168 166 163 161 173 168 157 145 138 125 115 107 97 90 88 84 71 49 39 56 37 19 4 10 2 6 1 360 1 355 349 351 348 344 341 338 343 349 353 352 358 360 5 8 7 8 13 15 14 9 6 3 4 4 6 12 16 15 11 9 7 7 8 11 10 8 6 4 359 357 357 357 357 356 353 345 340 339 339 337 330
172 175 176 173 167 163 166 176 173 165 155 146 129 119 107 102 88 89 74 67 64 38 29 42 32 1 360 357 2 0 355 356 358 359 354 348 350 342 338 338 335 342 347 350 356 360 4 8 12 18 21 19 17 14 7 4 1 3 10 13 8 5 4 4 4 5 7 10 12 10 7 2 358 354 352 352 353 352 352 349 346 342 339 337 336
165 174 171 170 171 172 171 176 174 164 147 140 137 140 125 117 121 98 82 76 76 46 38 27 8 345 357 344 358 352 352 354 356 354 350 352 346 346 340 336 339 339 340 348 355 359 6 14 18 24 22 18 15 9 6 3 6 9 8 3 1 0 0 0 359 2 5 7 7 6 4 1 358 354 351 350 349 349 347 346 346 347 344 338 334
171 167 173 172 172 174 179 181 166 156 147 155 139 133 129 131 134 108 94 82 83 74 68 53 14 358 343 346 341 342 1 355 350 357 360 349 351 347 346 344 337 339 341 352 352 355 2 12 23 24 19 16 12 10 6 6 4 359 356 355 356 356 356 356 356 359 1 4 4 3 1 359 356 355 353 350 347 344 343 343 346 349 351 351 345
170 166 168 177 177 179 183 169 167 152 149 146 138 142 139 128 136 133 114 108 107 57 37 37 11 352 336 336 332 347 357 354 356 357 353 357 357 348 342 342 341 342 356 356 359 356 358 13 20 20 17 14 13 10 3 359 358 356 353 353 354 353 354 355 355 357 359 1 1 359 357 353 351 351 351 350 347 343 338 338 339 341 343 345 349
170 169 167 175 176 179 180 173 165 156 153 156 149 152 144 131 116 132 123 126 96 83 31 22 2 344 327 328 336 355 358 355 351 349 356 12 360 351 352 354 357 2 0 2 6 3 359 8 14 15 13 9 10 8 3 2 360 354 352 352 352 352 355 356 356 357 360 358 354 352 351 350 348 348 348 347 345 342 338 335 334 335 336 338 340
171 170 170 174 172 174 174 172 165 157 153 154 159 147 137 134 121 79 101 104 90 73 30 358 351 340 337 334 341 11 354 360 353 6 17 8 1 1 355 351 7 4 3 9 6 0 359 358 7 12 12 9 10 6 1 359 357 352 350 351 352 354 358 360 359 357 354 350 348 348 349 349 348 348 347 345 342 340 337 335 333 332 331 331 333
171 169 167 171 170 174 174 178 167 161 154 151 151 147 137 128 127 107 78 90 111 108 100 294 327 340 344 334 350 360 1 4 38 22 19 9 357 353 360 9 9 5 3 6 357 359 357 0 13 16 9 9 7 2 359 358 355 351 350 351 353 355 356 354 351 350 349 348 349 349 349 350 350 347 344 342 340 337 335 333 332 331 330 329 328
171 170 168 170 173 177 176 176 175 162 161 160 167 164 157 134 133 126 115 89 65 89 48 41 55 65 13 348 10 6 8 43 60 47 26 29 12 5 14 7 24 4 5 356 2 8 10 13 16 11 12 3 3 3 0 357 354 351 351 351 350 349 348 348 349 349 351 351 350 348 348 348 347 346 343 340 337 336 333 332 331 329 328 327 327
171 167 173 172 174 173 171 180 178 172 173 178 164 156 154 147 134 118 120 96 44 15 40 80 45 14 24 18 353 14 22 60 79 48 35 28 29 24 4 25 21 18 1 10 16 11 12 10 7 6 1 357 358 0 358 355 354 353 352 353 352 350 350 351 351 351 351 350 348 347 347 347 346 344 341 338 336 334 332 330 330 328 327 325 324
171 174 171 173 173 178 181 181 178 178 170 152 155 156 146 140 143 80 30 123 92 348 329 103 30 99 24 334 349 359 28 61 86 21 27 32 31 16 13 31 25 6 5 17 8 7 6 4 1 354 346 355 360 358 353 351 350 352 354 356 353 351 351 350 350 350 350 348 347 347 347 346 345 342 339 336 334 331 330 329 328 327 325 324 323
174 176 174 178 178 175 185 176 179 168 157 165 165 160 161 158 164 135 105 49 96 13 1 51 137 133 137 87 2 13 332 8 346 357 19 33 54 14 30 31 22 11 3 16 358 354 353 356 345 338 334 355 1 355 348 346 344 349 353 355 353 350 350 350 350 350 349 348 348 348 348 346 344 342 339 336 333 331 329 328 327 326 325 323 322
178 177 175 177 176 181 172 175 178 177 170 164 168 170 164 165 152 144 133 112 72 14 358 356 122 123 30 74 157 99 318 349 331 307 35 76 80 40 39 33 14 13 22 5 336 337 340 342 335 323 324 349 360 349 345 344 343 346 348 350 349 352 353 352 350 350 349 349 349 348 346 346 344 341 338 335 332 330 328 326 326 325 323 322 321
177 179 176 179 179 175 173 174 171 180 174 173 177 179 178 171 165 155 158 142 151 132 338 2 359 224 142 109 55 31 214 253 356 292 341 354 50 98 44 28 27 18 25 332 322 327 326 331 322 314 314 345 348 339 336 338 345 347 347 346 345 355 354 351 348 348 347 348 348 347 346 345 342 339 337 335 333 331 329 327 324 323 322 321 319
181 180 182 175 177 174 169 167 176 179 182 179 167 153 171 171 185 167 153 158 136 129 107 328 351 357 37 131 160 173 167 214 112 270 319 277 289 153 147 24 116 73 6 313 310 310 316 314 310 299 308 328 331 324 324 329 340 346 352 339 355 359 355 350 348 347 347 348 347 345 342 339 337 335 334 332 330 328 327 326 325 322 319 318 318
186 183 181 178 173 172 173 176 176 177 172 161 175 183 176 172 159 156 167 145 130 126 153 172 43 360 19 53 70 80 119 123 195 51 327 316 353 284 284 303 197 48 358 289 294 307 301 301 297 290 296 308 317 309 314 321 337 344 348 346 4 359 355 354 352 349 345 342 339 337 335 333 332 330 328 326 324 323 322 321 320 319 319 318 316
185 187 182 179 175 174 174 173 174 178 173 179 180 174 157 156 160 163 152 160 152 143 160 171 155 183 128 93 89 87 99 95 135 162 171 242 303 311 322 305 287 325 284 234 310 295 289 289 290 296 299 303 296 297 293 311 331 349 334 2 6 1 360 357 350 343 338 334 332 330 329 328 327 325 324 322 322 321 320 318 316 314 313 313 313
192 186 186 183 180 178 174 174 176 177 178 174 174 170 172 164 163 161 168 169 156 151 148 178 169 162 147 112 113 112 109 103 153 148 166 180 257 201 261 317 288 275 220 254 290 273 270 278 287 289 287 287 285 275 301 323 337 352 347 12 8 5 355 344 337 334 332 330 327 326 324 323 322 322 322 321 319 319 318 316 315 313 311 310 309
192 190 187 187 182 178 178 180 179 174 176 178 169 171 172 172 173 168 163 162 160 155 167 171 174 166 169 153 142 124 88 77 152 161 212 196 236 225 158 276 319 267 221 264 265 275 262 276 284 280 280 283 279 292 321 336 346 14 21 16 2 351 343 340 338 335 331 328 327 324 321 321 320 319 318 316 315 314 313 313 313 313 312 309 307
184 192 190 184 185 181 181 182 178 178 176 172 178 176 176 171 167 161 165 162 164 158 149 163 159 165 170 172 171 171 170 170 181 183 157 178 270 251 163 165 237 299 218 133 312 291 279 274 275 279 280 277 285 321 332 2 18 30 24 2 353 348 345 340 336 330 325 323 321 320 320 319 319 317 315 314 312 311 310 311 312 312 311 309 306
188 189 191 186 183 184 181 179 183 180 183 179 174 173 168 162 164 170 171 167 159 157 159 162 170 170 178 180 176 166 148 133 156 146 146 176 170 288 311 288 261 207 262 310 253 244 273 271 264 269 279 281 299 317 33 49 34 15 15 5 350 343 337 332 328 324 322 321 321 321 320 319 319 317 315 314 312 311 311 312 312 311 309 307 304
196 193 194 183 182 181 183 185 186 189 180 176 176 169 166 168 170 173 172 172 175 169 169 177 172 175 178 176 160 155 149 133 129 137 134 126 124 327 308 22 305 299 269 19 311 234 217 201 216 254 264 289 333 69 67 60 37 1 7 1 341 334 330 328 326 326 324 325 325 325 325 323 320 317 316 313 311 311 313 312 311 309 307 304 302
188 198 185 180 187 189 185 189 187 181 180 180 176 175 171 171 172 174 180 179 167 173 173 168 172 167 151 154 157 150 143 142 140 134 146 136 147 169 292 339 311 295 314 336 345 6 328 130 193 235 235 188 79 69 42 18 7 350 350 347 333 330 328 327 327 326 326 327 327 326 323 321 319 317 314 313 313 314 313 312 310 307 305 302 301
193 188 173 187 189 183 185 184 183 180 178 179 178 176 176 169 175 177 174 168 171 165 167 163 165 162 154 150 148 143 151 152 143 157 154 161 154 157 149 325 318 245 280 311 310 250 264 313 28 331 71 87 88 67 48 12 336 340 341 337 321 324 327 326 327 328 328 327 326 324 322 321 320 319 318 318 318 317 314 312 309 306 303 302 301
186 175 185 182 186 185 182 186 178 179 181 181 179 178 176 173 173 174 175 170 166 169 164 157 155 154 151 151 143 158 158 157 157 157 159 160 154 154 150 158 161 282 301 295 238 272 248 252 330 302 69 109 101 60 339 344 323 335 332 319 316 311 321 323 326 327 327 325 324 323 322 321 322 322 322 321 320 318 315 312 309 305 301 298 296
184 179 177 183 185 184 183 182 180 179 179 182 180 179 177 177 177 173 175 170 165 166 154 160 161 159 159 163 160 159 164 156 153 152 153 150 156 161 167 168 175 172 225 258 272 272 279 193 182 319 113 120 43 351 352 338 331 328 321 314 306 306 314 323 326 326 326 325 325 324 323 323 323 322 321 319 317 315 312 308 304 301 298 296 295
173 178 176 180 184 183 183 182 181 179 183 178 179 177 174 181 179 180 170 157 154 151 164 160 165 162 161 159 159 157 160 153 155 153 150 154 155 163 168 173 173 186 191 220 258 208 271 228 195 223 175 49 23 355 353 329 323 322 313 310 307 300 315 322 322 322 322 322 322 322 320 318 318 317 315 313 312 309 306 303 299 297 295 294 293
177 173 177 179 182 185 183 182 179 182 178 180 175 175 177 175 176 172 163 163 162 167 169 163 166 161 162 163 163 161 162 155 147 145 145 146 153 155 166 163 188 180 194 212 253 241 206 236 265 183 352 13 1 331 316 298 300 307 309 308 307 311 318 316 318 319 319 318 318 317 315 314 314 313 313 310 308 306 303 300 298 295 294 293 293
179 176 178 182 182 182 184 181 180 180 179 178 176 175 176 181 174 172 171 166 166 169 167 166 161 166 164 169 175 168 164 149 150 148 146 144 142 150 155 160 177 180 174 208 233 245 216 251 276 299 35 5 339 318 306 292 279 290 285 293 300 309 312 309 313 313 313 314 315 316 315 314 312 311 309 306 304 301 300 299 298 296 294 292 292
178 180 182 184 181 182 181 183 182 182 179 177 178 174 179 178 178 173 168 171 167 168 161 167 170 169 174 172 174 171 161 156 154 148 146 146 142 150 158 165 187 193 182 216 241 270 261 264 270 252 320 322 292 271 288 292 300 296 288 284 284 288 295 298 300 301 303 306 308 308 308 309 308 305 304 302 301 300 299 297 296 294 293 291 291
179 183 183 181 182 180 181 184 184 184 183 180 176 176 179 176 176 174 175 173 170 168 166 174 175 176 172 169 173 169 168 156 153 155 149 150 159 161 178 176 202 194 195 186 252 264 284 250 279 257 245 229 243 264 282 297 294 297 297 297 290 281 288 290 289 289 292 298 301 300 303 305 302 301 300 299 299 299 296 295 294 292 291 289 289
184 183 183 180 178 179 181 183 184 185 185 181 179 178 181 179 178 179 180 177 175 173 177 181 177 170 169 175 176 168 162 155 158 154 151 158 157 169 181 183 189 200 196 213 241 261 269 268 260 283 248 235 266 283 275 270 278 281 290 295 299 295 287 287 284 284 288 294 297 299 301 301 300 297 297 298 297 296 295 294 293 292 290 288 287
183 186 181 179 176 179 182 183 186 185 183 184 181 183 182 180 180 181 179 182 182 182 180 176 175 176 177 171 180 170 162 157 162 160 160 153 161 168 184 194 188 199 213 220 229 252 277 291 233 286 288 283 269 257 273 281 288 286 275 286 282 282 282 274 274 281 282 287 291 292 295 294 293 296 297 295 295 294 294 293 291 292 290 288 286
185 178 181 177 178 180 185 186 184 183 185 182 181 184 184 183 182 180 181 182 183 183 182 180 179 177 178 181 171 168 165 161 167 167 161 163 166 172 186 189 190 203 213 217 233 240 264 270 287 267 285 282 263 275 273 304 304 293 293 285 287 287 283 264 264 266 273 283 287 288 288 290 292 294 295 295 293 292 290 290 290 292 292 291 290
183 184 179 180 184 186 186 184 183 183 182 184 185 184 182 180 181 182 181 182 182 181 181 183 182 181 179 174 172 170 172 171 173 164 163 169 168 179 187 194 194 206 214 231 237 246 256 271 287 301 292 313 307 280 305 301 306 309 301 293 291 287 291 298 280 284 287 279 289 281 281 285 284 284 287 290 290 290 289 289 290 292 293 293 291
183 183 186 184 187 185 187 182 184 183 182 182 183 184 183 181 179 178 178 180 180 180 185 183 179 177 174 171 173 175 175 171 166 170 169 170 178 185 192 189 208 205 224 230 237 248 257 277 285 282 299 292 298 306 301 286 291 292 306 315 309 308 303 305 305 298 289 284 270 276 280 279 283 285 285 284 288 288 288 287 289 290 290 290 289
190 189 186 187 186 185 185 184 185 180 179 181 182 182 183 182 180 180 178 177 177 178 177 177 174 175 175 174 177 178 172 169 167 169 166 172 165 185 188 188 203 216 221 229 234 242 260 272 283 300 299 298 298 273 280 284 278 280 274 301 304 317 313 308 309 311 306 293 292 278 265 275 274 270 273 275 276 279 279 282 283 284 285 285 285
189 189 185 180 178 185 187 186 183 182 183 185 183 180 179 183 183 179 177 176 175 174 172 173 174 168 168 174 176 171 168 173 180 174 174 170 166 178 197 192 208 213 224 228 229 244 260 271 278 282 288 291 291 310 324 331 331 323 320 316 304 310 311 309 306 282 284 293 290 284 280 259 273 272 266 265 262 261 265 268 275 278 282 284 284
184 180 180 183 184 185 182 184 185 186 191 189 185 181 180 178 178 177 173 175 174 172 169 165 161 168 173 169 175 176 180 184 188 187 187 191 190 188 194 194 199 211 217 223 237 244 260 272 267 287 298 295 312 317 314 313 315 315 313 314 308 313 315 307 299 298 303 296 289 287 280 269 274 276 265 267 271 266 264 264 261 271 276 278 277
183 181 181 186 189 186 186 185 186 190 191 189 184 184 183 179 173 173 173 172 173 171 164 150 160 167 170 168 170 184 184 188 190 194 195 198 205 208 208 209 208 204 206 227 233 225 247 271 284 293 293 298 303 310 307 313 314 314 312 312 312 313 313 318 314 318 146 322 308 298 288 206 254 287 276 261 269 273 270 263 271 279 280 279 276
186 182 187 191 187 188 188 188 190 191 190 186 185 185 182 178 174 170 170 169 169 172 154 157 159 163 165 162 171 180 179 182 180 196 203 208 213 220 224 230 235 238 238 236 246 251 257 269 276 280 293 291 300 304 305 310 310 309 308 308 304 304 306 299 296 299 319 333 315 308 298 290 267 282 285 280 275 272 270 280 284 286 282 279 277
174 184 192 185 192 189 187 190 193 191 192 185 186 184 180 178 174 168 172 167 167 170 157 164 165 164 163 163 167 176 175 184 187 188 187 209 218 221 229 235 240 244 249 255 257 260 265 269 273 279 278 298 296 293 297 305 309 305 306 300 300 295 289 294 297 307 311 330 308 297 295 302 336 288 286 290 287 273 274 278 284 284 284 281 278
187 190 188 191 189 190 191 190 190 189 189 185 184 183 181 177 173 168 167 164 166 167 162 164 162 163 167 166 166 170 172 181 176 176 183 189 213 229 241 246 244 251 252 256 261 266 270 277 283 281 284 277 281 290 298 303 303 299 297 295 302 303 305 298 303 301 299 309 293 292 292 293 331 299 291 291 286 277 268 277 284 285 285 282 280
188 190 188 190 192 190 188 186 185 187 187 184 185 184 180 176 173 160 160 161 162 165 158 161 169 167 167 169 167 163 166 167 163 168 163 185 198 213 226 232 237 237 241 247 248 246 254 262 264 269 275 279 282 290 292 290 288 286 293 306 316 310 302 300 294 288 290 287 281 283 280 293 321 300 294 291 286 277 268 273 277 281 283 281 280
191 185 192 190 188 187 187 185 186 187 180 184 184 183 179 175 169 151 161 163 163 165 166 170 170 171 170 163 160 156 157 160 180 190 193 190 199 211 217 224 232 236 233 241 258 264 263 256 255 265 278 284 286 288 291 294 299 314 317 313 308 300 299 295 290 300 292 297 288 284 284 292 307 298 292 286 279 276 276 267 271 281 282 279 280
186 189 191 187 186 183 183 184 182 178 171 185 186 184 183 180 171 152 162 163 165 166 170 169 170 170 158 158 157 156 157 158 188 197 200 198 198 208 213 212 214 240 264 262 269 272 279 284 286 287 287 289 292 293 295 301 305 310 312 304 294 306 300 298 293 295 286 299 283 281 283 289 296 296 298 295 294 292 294 290 281 276 277 279 279
188 190 179 177 180 181 181 183 182 174 174 184 185 185 183 186 168 161 166 167 165 166 164 166 164 164 164 169 168 162 165 175 193 200 203 205 197 187 187 211 237 246 244 239 284 290 287 286 287 287 286 287 291 303 311 310 303 303 294 285 293 306 289 283 288 293 294 288 282 278 283 288 309 309 306 301 296 281 282 283 290 284 279 276 277
187 176 176 177 176 177 181 179 175 175 176 184 188 188 187 188 170 166 167 167 164 166 164 162 162 162 169 178 179 173 177 188 196 200 202 200 181 182 196 225 226 224 242 284 277 283 280 274 272 279 300 308 313 310 304 301 297 295 288 281 288 279 277 280 282 291 294 284 237 313 297 298 298 290 297 300 290 290 289 287 287 288 284 279 273